Tracking 25953 objects as of 16-Aug-2022
HD Live streaming from Space Station
objects crossing your sky now

STARLINK-4111

Track STARLINK-4111 now!
10-day predictions
STARLINK-4111 is classified as:


NORAD ID: 53159
Int'l Code: 2022-083AD
Perigee: 354.2 km
Apogee: 359.8 km
Inclination: 53.2 °
Period: 91.5 minutes
Semi major axis: 6728 km
RCS: Unknown
Launch date: July 17, 2022
Source: United States (US)
Launch site: AIR FORCE EASTERN TEST RANGE (AFETR)
aabbcc
Your satellite tracking list
Your tracking list is empty




NASA's NSSDC Master Catalog

Two Line Element Set (TLE):
1 53159U 22083AD  22227.91667824  .00072564  00000-0  51769-3 0  9991
2 53159  53.2158 261.6961 0004142   6.5430 324.6988 15.73159863  1301
Source of the keplerian elements: AFSPC